{"data":{"norad_id":63304,"intl_designator":"2025-056E","name":"KINEIS-4B","alt_names":[],"object_type":"PAYLOAD","status":"ACTIVE","operator":null,"country":"FR","launch_date":"2025-03-18","launch_site_code":"RLLB","launch_vehicle":null,"mission":null,"orbit_class":"UNKNOWN","rcs_meters":null,"size_class":null,"mass_kg":null,"dimensions":null,"purposes":[],"wikipedia_slug":null,"has_3d_model":false,"image_url":null,"decayed_at":null,"tle_current":{"epoch":"2026-09-22T22:38:34.435968Z","epoch_age_seconds":112784,"freshness":"FRESH","line1":"1 63304U 25056E   26265.94345412  .00000932  00000+0  15507-3 0  9991","line2":"2 63304  97.9229  27.4866 0005162 358.7412   1.3782 14.72301050 81501","mean_motion":14.723010500000001,"eccentricity":0.0005162,"inclination_deg":97.9229,"raan_deg":27.4866,"arg_perigee_deg":358.7412,"mean_anomaly_deg":1.3782,"bstar":0.00015507,"rev_number":8150,"period_min":97.806083884814,"perigee_km":650.10196554367,"apogee_km":657.36166690954,"semimajor_km":7031.8688162266,"source":"CELESTRAK","updated_at":"2026-09-23T09:00:21.959801Z"}}}